Location: ????????
(55.6333°N, 37.7000°E)
Time: 07:11:28
(UTC+00:00)

CZ-2C R/B - Pass Details

Date: 19 May 2025
Orbit: 631 x 693 km, 98.1° (Epoch: 15 June)

Event Time Altitude Azimuth Distance (km) Brightness Sun altitude
Rises 19:56:26 0° 19° (NNE) 2,944 7.9 -12.1°
Reaches altitude 10° 19:58:46 10° 27° (NNE) 2,028 6.8 -12.2°
Maximum altitude 20:02:57 42° 98° (E) 915 4.2 -12.4°
Enters shadow 20:05:44 19° 161° (SSE) 1,511 4.9 -12.5°
